Location: ?????????
(54.7630°N, 39.4991°E)
Time: 22:26:13
(UTC+00:00)

Cosmos 1536 - Pass Details

Date: 14 April 2026
Orbit: 481 x 503 km, 82.5° (Epoch: 13 May)

Event Time Altitude Azimuth Distance (km) Brightness Sun altitude
Rises 23:33:22 0° 350° (N) 2,573 6.9 -19.9°
Reaches altitude 10° 23:35:31 10° 354° (N) 1,684 6.0 -19.7°
Maximum altitude 23:39:10 63° 76° (ENE) 547 2.9 -19.4°
Enters shadow 23:40:43 31° 147° (SSE) 868 3.6 -19.3°
